AirNav   Air Wisconsin pilot careers
 
 497 users online  

MO85 Wells Airport
Marshfield, Missouri, USA

GOING TO MARSHFIELD?


FAA INFORMATION EFFECTIVE 01 FEBRUARY 2018

Location

FAA Identifier: MO85
Lat/Long: 37-15-06.1760N / 092-50-01.6230W
37-15.102933N / 092-50.027050W
37.2517156 / -92.8337842
(estimated)
Elevation: 1530 ft. / 466 m (estimated)
Variation: 02E (2000)
From city: 6 miles SE of MARSHFIELD, MO
Time zone: UTC -6 (UTC -5 during Daylight Saving Time)
Zip code: 65706

Airport Operations

Airport use: Private use. Permission required prior to landing
Activation date: 12/2000
Control tower: no
ARTCC: KANSAS CITY CENTER
FSS: COLUMBIA FLIGHT SERVICE STATION
Attendance: UNATNDD
Wind indicator: yes
Segmented circle: no

Nearby radio navigation aids

VOR radial/distance  VOR name  Freq  Var
DGDr008/13.8DOGWOOD VORTAC109.4001E
SGFr101/24.7SPRINGFIELD VORTAC116.9004E

 
NDB name  Hdg/Dist  Freq  Var  ID
LEBANON201/20.941403EIEB .. . -...

Airport Services

Runway Information

Runway 18/36

Dimensions: 2300 x 75 ft. / 701 x 23 m
Surface: turf
RUNWAY 18  RUNWAY 36
Traffic pattern: leftleft
Displaced threshold: 200 ft.200 ft.
Obstructions: 80 ft. trees, 200 ft. from runway80 ft. trees, 200 ft. from runway

Airport Ownership and Management from official FAA records

Ownership: Privately-owned
Owner: LARRY WELLS
2411 LONG STATE HIGHWAY P
MARSHFIELD, MO 65706
Phone 417-859-6423
Manager: LARRY WELLS
2411 LONG STATE HIGHWAY P
MARSHFIELD, MO 65706
Phone 417-859-6423

Airport Operational Statistics

Aircraft based on the field: 1
Single engine airplanes: 1
    

Instrument Procedures

There are no published instrument procedures at MO85.

Some nearby airports with instrument procedures:

KAOV - Ava Bill Martin Memorial Airport (18 nm SE)
3DW - Downtown Airport (20 nm W)
KLBO - Floyd W Jones Lebanon Airport (25 nm N)
1MO - Mountain Grove Memorial Airport (26 nm E)
KSGF - Springfield-Branson National Airport (27 nm W)
 
Loc | Ops | Rwys | IFR | FBO | Links
Com | Nav | Svcs | Stats | Notes

Kansas City Aviation Department
 
Area around MO85 (Wells Airport)
 
Road maps at: MapQuest Bing Google
 
Aerial photo
WARNING: Photo may not be current or correct
Aerial photo of MO85 (Wells Airport)
Do you have a better or more recent aerial photo of Wells Airport that you would like to share? If so, please send us your photo.

 
Sectional chart

 
Airport distance calculator
Flying to Wells Airport? Find the distance to fly.

From to MO85

Sunrise and sunset
Times for 22-Feb-2018
 Local
(UTC-6)
 Zulu
(UTC)
Morning civil twilight06:2612:26
Sunrise06:5312:53
Sunset17:5723:57
Evening civil twilight18:2300:23

Current date and time
Zulu (UTC)  22-Feb-2018 11:43:11
Local (UTC-6)  22-Feb-2018 05:43:11
 
METAR
KLBO 
25nm N 
221115Z AUTO 00000KT 4SM -SN OVC004 00/00 A3033 RMK AO2
KSGF 
26nm W 
221118Z 08004KT 4SM BR OVC004 00/M01 A3032 RMK AO2 T00001006
KFWB 
43nm SW 
221115Z AUTO 00000KT 5SM BR 00/00 A3034 RMK AO2
KOZS 
44nm N 
221115Z AUTO 00000KT 4SM UP OVC003 00/00 A3035 RMK AO2
KTBN 
44nm NE 
221101Z AUTO 05004KT 7SM -DZ OVC004 00/M01 A3031 RMK AO2 DZB01 SLP279
KBBG 
47nm S 
221055Z AUTO 00000KT 1 1/4SM BR OVC002 M01/M01 A3034 RMK AO2
KUNO 
50nm SE 
221101Z AUTO 02005KT 4SM BR BKN005 OVC010 00/M01 A3031 RMK AO2 T00001006 $
TAF
KSGF 
26nm W 
220742Z 2208/2306 06007KT 3SM -FZDZ BR OVC004 FM221500 12007KT P6SM -DZ OVC010 FM221800 13007KT P6SM OVC015 FM230000 13007KT 2SM -SHRA BR OVC008 FM230100 13007KT 2SM -SHRA BR OVC003
NOTAMs
Click for the latest NOTAMs
NOTAMs are issued by the DoD/FAA and will open in a separate window not controlled by AirNav.

 

 
 

Would you like to see your business listed on this page?

 If your business provides an interesting product or service to pilots, flight crews, aircraft, or users of the Wells Airport, you should consider listing it here.  To start the listing process, click on the button below
 
Add a business
 

Other Pages about Wells Airport

Update a link
 
Copyright © AirNav, LLC. All rights reserved. Privacy Policy  Contact